Flag for Canada Weather past 2 weeks in Prince Rupert, British Columbia, Canada

Now
52 °F

Light rain. Fog.


Feels Like: 46 °F
Forecast: 44 / 51 °F
Wind: 21 mph from Southeast

Location: Prince Rupert

Current Time: Apr 28, 2015 at 4:56:32 AM

Latest Report: Apr 28, 2015 at 4:00 AM


Visibility: 4 mi

Pressure: 29.20 "Hg

Humidity: 88%

Dew point: 48 °F

Location of Prince RupertLocation

Historic Weather in Prince Rupert — Graph

°F

Prince Rupert temperature yesterday

Maximum temperature yesterday: 52 °F (at 11:00 PM)
Minimum temperature yesterday: 45 °F (at 12:04 AM)
Average temperature yesterday: 46 °F

Past Weeks' High & Low Weather Summary

 TemperatureHumidityPressure
High55 °F (Apr 25, 2:00 PM)100% (Apr 16, 3:54 AM)30.50 "Hg (Apr 16, 3:54 AM)
Low37 °F (Apr 24, 4:00 AM)43% (Apr 22, 8:00 PM)29.20 "Hg (Apr 28, 4:00 AM)
Average46 °F81%29.97 "Hg
* Reported Apr 13 4:00 AM — Apr 28 4:00 AM, Prince Rupert, Weather by CustomWeather, © 2015

Note: Actual official high and low records may vary slightly from our data, if they occured in-between our weather recording intervals... More about our weather records

Advertising

Prince Rupert weather history for previous 24 hours

 ConditionsComfort  
Time TempWeatherWind HumidityBarometerVisibility
4:00 AM
Tue, Apr 28
52 °FLight rain. Fog.21 mph88%29.20 "Hg4 mi
3:00 AM50 °FRain. Fog.9 mph94%29.25 "Hg4 mi
2:00 AM50 °FRain. Fog.10 mph94%29.33 "Hg4 mi
1:00 AM52 °FRain. Fog.10 mph88%29.41 "Hg4 mi
12:00 AM52 °FRain. Fog.14 mph88%29.46 "Hg5 mi
11:00 PM
Mon, Apr 27
52 °FRain. Fog.13 mph88%29.52 "Hg3 mi
10:00 PM50 °FLight rain. Fog.9 mph94%29.55 "Hg5 mi
9:55 PM50 °FLight rain. Fog.10 mph94%29.56 "Hg5 mi
9:00 PM50 °FLight rain. Mostly cloudy.3 mph94%29.59 "Hg8 mi
8:00 PM50 °FRain. Fog.10 mph94%29.63 "Hg3 mi
7:04 PM45 °FLight rain. Fog.No wind100%29.67 "Hg3 mi
6:56 PM45 °FRain. Fog.2 mph100%29.68 "Hg3 mi
6:02 PM45 °FHeavy rain. Fog.5 mph93%29.71 "Hg4 mi
5:00 PM45 °FRain. Fog.3 mph93%29.77 "Hg6 mi
4:00 PM45 °FRain. Overcast.3 mph93%29.82 "Hg7 mi
3:00 PM45 °FRain. Overcast.5 mph93%29.86 "Hg7 mi
2:00 PM45 °FLight rain. Mostly cloudy.6 mph87%29.90 "Hg9 mi
1:00 PM45 °FLight rain. Fog.7 mph87%29.93 "Hg5 mi
12:58 PM45 °FLight rain. Fog.7 mph87%29.93 "Hg5 mi
12:00 PM46 °FOvercast.15 mph71%29.94 "Hg9 mi
11:00 AM48 °FBroken clouds.9 mph76%29.95 "Hg9 mi
10:00 AM48 °FSunny.10 mph76%29.96 "Hg9 mi
9:00 AMN/ASunny.9 mphN/AN/A9 mi
8:00 AM45 °FBroken clouds.8 mph81%29.98 "Hg9 mi
7:00 AM45 °FQuite cool.8 mph81%29.98 "Hg9 mi
6:00 AMN/AOvercast.10 mphN/AN/A9 mi
5:00 AM45 °FOvercast.9 mph87%29.98 "Hg9 mi
4:00 AM45 °FQuite cool.7 mph87%29.98 "HgN/A
Weather by CustomWeather, © 2015

See weather overviewHow to use our weather pages